User: anonymous   Login
Location: Unspecified
(0.0000°N, 0.0000°E)
Time: 03:26:43
(UTC+00:00)
Language:

Transit 4A - Orbit

View from above orbital plane
View from above orbital plane
View from above satellite
View from above satellite

Ground track
Ground track

The orbit data is extracted from the following two-line orbital elements,

1   116U 61015A   18267.59292108 -.00000077 +00000-0 -17768-6 0  9992
2   116 066.8090 312.8320 0068798 092.3139 268.5820 13.91738856903894
Epoch (UTC): 24 September 2018 14:13:48
Eccentricity: 0.0068798
inclination: 66.8090°
perigee height: 872 km
apogee height: 973 km
right ascension of ascending node: 312.8320°
argument of perigee: 92.3139°
revolutions per day: 13.91738856
mean anomaly at epoch: 268.5820°
orbit number at epoch: 90389

The dashed part of the orbit path shows where the satellite is in the earth's shadow,  

DLR